[[{"header":{"parameterUnit":"m.s-1","parameterCategory":2,"la1":30.2991,"la2":30.254,"lo1":-89.0895,"lo2":-89.0444,"dy":0.0017,"dx":0.0017,"nx":28,"ny":28,"refTime":"2025-04-22T09:00:00:Z","depth":"0","parameterNumber":2,"parameterNumberName":"U-component_of_CURRENTS"},"data":[0,0,0,0,0,0,0,0,0,0,0,0,0,0,0,0,0,0,0,0,0,0,0,0,0,0,0,0,0,0,0,0,0,0,0,0,0,0,0,0,0,0,0,0,0,0,0,0,0,0,0,0,0,0,0,0,0,0,0.291,0.2909,0,0.2828,0.2827,0.2825,0.2724,0.2722,0.2721,0.272,0.266,0.266,0.2659,0,0,0,0,0,0,0,0,0,0,0,0,0,0.2865,0.2867,0.291,0.2909,0.2909,0.2828,0.2827,0.2825,0.2724,0.2722,0.2721,0.2719,0.266,0.266,0.2659,0,0,0,0,0,0,0,0,0,0,0,0,0,0.2841,0.2867,0.291,0.2851,0.2845,0.2828,0.2827,0.2825,0.2724,0.2722,0.272,0.2719,0.266,0.266,0.2659,0.2696,0,0,0.2658,0.2657,0,0,0,0,0,0,0,0,0.2843,0.2843,0.286,0.2855,0.2848,0.2787,0.2789,0.2784,0.2725,0.2767,0.272,0.2718,0.2708,0.2704,0.2688,0.2693,0.269,0.2658,0.2657,0.2657,0.2657,0,0,0,0,0,0,0,0.2845,0.2845,0.2874,0.286,0.2852,0.2789,0.2784,0.2786,0.2748,0.2763,0.2756,0.2753,0.2704,0.2688,0.2686,0.269,0.2658,0.2657,0.2657,0.2657,0.2673,0.2673,0,0,0,0,0,0,0.287,0.2848,0.2877,0.2872,0.2844,0.2792,0.2786,0.2806,0.2747,0.2737,0.2754,0.2748,0.269,0.2686,0.2683,0.2704,0.2657,0.2657,0.2656,0.2672,0.2673,0.2674,0,0,0,0,0,0,0.287,0.2875,0.288,0.2858,0.2855,0.2796,0.2818,0.2805,0.2787,0.2741,0.273,0.2749,0.2689,0.2684,0.268,0.2701,0.2656,0.2656,0.2671,0.2672,0.2673,0.2758,0,0,0,0,0,0,0.2869,0.2876,0.2894,0.2862,0.2858,0.2889,0.282,0.2805,0.2789,0.278,0.2733,0.2725,0.2687,0.2681,0.268,0.27,0.2655,0.267,0.2671,0.2673,0.2754,0.2761,0.2768,0,0,0,0,0,0.2868,0.2929,0.2896,0.2898,0.2887,0.2891,0.2884,0.283,0.2792,0.2802,0.2755,0.2726,0.2688,0.2682,0.268,0.27,0.2669,0.2671,0.2673,0.2751,0.276,0.2768,0,0,0,0,0,0,0.2937,0.2923,0.2886,0.2942,0.2916,0.2875,0.2889,0.2844,0.2814,0.2806,0.2744,0.2735,0.2735,0.2712,0.2706,0.2707,0.2672,0.2673,0.2732,0.274,0.2747,0.2791,0.2655,0,0,0,0,0,0.2957,0.2981,0.2954,0.2991,0.2992,0.2936,0.2928,0.2893,0.2864,0.2847,0.2804,0.2766,0.2743,0.2736,0.2714,0.2731,0.274,0.2739,0.2746,0.2752,0.2785,0.2807,0.282,0.2679,0.2679,0.2679,0,0,0.2983,0.2986,0.2993,0.3003,0.2982,0.298,0.2927,0.2937,0.2922,0.2852,0.283,0.2795,0.2752,0.2752,0.2751,0.2736,0.2798,0.2754,0.276,0.279,0.2811,0.2825,0.2837,0.268,0.268,0.268,0,0,0.3047,0.3065,0.3089,0.3081,0.3067,0.3037,0.3044,0.3005,0.2982,0.2968,0.2901,0.2879,0.285,0.2813,0.2793,0.2833,0.2832,0.2828,0.2906,0.2926,0.2939,0.295,0.2989,0.3003,0.2834,0.2834,0.2834,0,0.3064,0.3104,0.3097,0.3116,0.3112,0.3065,0.3077,0.3058,0.3011,0.3012,0.2976,0.293,0.2876,0.288,0.2879,0.285,0.2881,0.2876,0.2939,0.295,0.296,0.2997,0.3011,0.2838,0.2838,0.2837,0.2837,0,0.3119,0.3152,0.3183,0.3173,0.3173,0.3196,0.3163,0.3158,0.3123,0.3095,0.3101,0.3039,0.3014,0.2986,0.2943,0.2987,0.2993,0.2944,0.2924,0.298,0.3014,0.3028,0.2845,0.2843,0.2842,0.2841,0,0,0.3131,0.3201,0.3202,0.3209,0.321,0.321,0.3223,0.322,0.3227,0.3203,0.3223,0.3172,0.3157,0.3135,0.3083,0.3097,0.3166,0.3069,0.3068,0.3122,0.3256,0.3176,0.3183,0.3146,0.3149,0.3151,0.3255,0,0.3154,0.322,0.3238,0.3265,0.329,0.3275,0.3287,0.3281,0.3273,0.3286,0.3269,0.3263,0.3211,0.3201,0.3217,0.3176,0.3207,0.3145,0.3182,0.3184,0.3117,0.3196,0.3049,0.3123,0.3269,0.3271,0.3272,0,0.3163,0.3215,0.3269,0.3319,0.3327,0.3329,0.3343,0.3348,0.3376,0.3382,0.3411,0.3395,0.3421,0.3351,0.3386,0.3363,0.3333,0.3305,0.3306,0.3218,0.313,0.3087,0.3142,0.3066,0.3293,0.3291,0.329,0,0.3143,0.3219,0.3268,0.3281,0.3332,0.3348,0.3357,0.3378,0.3393,0.3447,0.3476,0.352,0.3525,0.3536,0.3481,0.3453,0.352,0.3452,0.3367,0.3361,0.3235,0.3213,0.323,0.349,0.3489,0.3489,0.3489,0,0.3149,0.3178,0.3266,0.3287,0.3327,0.3355,0.3381,0.3406,0.3454,0.3488,0.3527,0.3567,0.3574,0.3599,0.3559,0.3525,0.3584,0.342,0.3391,0.3258,0.3238,0.3162,0.3132,0.3493,0.3492,0.3491,0.3491,0,0.3105,0.3172,0.3223,0.3302,0.3319,0.3336,0.3379,0.3399,0.3463,0.3513,0.3541,0.3622,0.3666,0.3665,0.3664,0.3595,0.3465,0.3529,0.3385,0.3336,0.3161,0.314,0.3039,0.2945,0.3477,0.3475,0.3474,0,0.3089,0.3121,0.3211,0.3229,0.3261,0.3294,0.3314,0.3384,0.3408,0.3533,0.3559,0.3645,0.3667,0.3677,0.3584,0.354,0.3425,0.336,0.325,0.3169,0.3127,0.3008,0.2928,0.3129,0.3125,0.3122,0.312,0,0.3047,0.3082,0.3127,0.3177,0.3205,0.323,0.3271,0.3297,0.3386,0.3442,0.3517,0.3559,0.3588,0.3474,0.3422,0.3366,0.32,0.3292,0.3242,0.2903,0.2743,0.263,0.3065,0.3092,0.3095,0.3097,0.3098,0.31,0.2991,0.3009,0.3068,0.3094,0.3127,0.314,0.3119,0.3172,0.3206,0.3232,0.3381,0.3353,0.3348,0.3252,0.3188,0.2989,0.2996,0.2863,0.2867,0.2771,0.2607,0.2996,0.2954,0.2956,0.2957,0.2959,0.296,0,0.2902,0.2935,0.2969,0.2997,0.2982,0.3037,0.3057,0.3002,0.2984,0.3039,0.3059,0.3006,0.2913,0.2872,0.2718,0.258,0.245,0.2513,0.2328,0.2285,0.2667,0.2577,0.2409,0.2409,0.2409,0.2409,0.2409,0.2409,0.2858,0.2859,0.2884,0.2835,0.2844,0.2768,0.2749,0.2696,0.2679,0.2575,0.2501,0.2534,0.2616,0.2574,0.2393,0.2317,0.2142,0.203,0.2054,0.2349,0.2382,0.2413,0.2322,0.2103,0.2103,0.1546,0.1542,0.1539]},{"header":{"parameterUnit":"m.s-1","parameterCategory":2,"la1":30.2991,"la2":30.254,"lo1":-89.0895,"lo2":-89.0444,"dy":0.0017,"dx":0.0017,"nx":28,"ny":28,"refTime":"2025-04-22T09:00:00:Z","depth":"0","parameterNumber":3,"parameterNumberName":"V-component_of_CURRENTS"},"data":[0,0,0,0,0,0,0,0,0,0,0,0,0,0,0,0,0,0,0,0,0,0,0,0,0,0,0,0,0,0,0,0,0,0,0,0,0,0,0,0,0,0,0,0,0,0,0,0,0,0,0,0,0,0,0,0,0,0,0.0341,0.0342,0,0.0354,0.0354,0.0354,0.0356,0.0356,0.0356,0.0357,0.031,0.0309,0.0307,0,0,0,0,0,0,0,0,0,0,0,0,0,0.029,0.0291,0.0341,0.0342,0.0342,0.0354,0.0354,0.0354,0.0356,0.0356,0.0356,0.0357,0.031,0.0309,0.0307,0,0,0,0,0,0,0,0,0,0,0,0,0,0.0307,0.0291,0.0341,0.0345,0.0346,0.0354,0.0354,0.0354,0.0356,0.0356,0.0356,0.0357,0.0311,0.0309,0.0307,0.0295,0,0,0.0301,0.03,0,0,0,0,0,0,0,0,0.0306,0.0309,0.0345,0.0345,0.0346,0.0355,0.0319,0.0332,0.0356,0.0351,0.0357,0.0357,0.032,0.0317,0.0319,0.0293,0.0291,0.0301,0.03,0.0299,0.0299,0,0,0,0,0,0,0,0.0305,0.0308,0.0345,0.0345,0.0346,0.0337,0.0339,0.0321,0.0333,0.0352,0.0352,0.0356,0.032,0.0321,0.0318,0.029,0.0301,0.0299,0.0298,0.0298,0.0255,0.0255,0,0,0,0,0,0,0.0308,0.0308,0.0345,0.0346,0.0327,0.0338,0.0341,0.0351,0.0335,0.0333,0.0356,0.0356,0.0324,0.032,0.0316,0.0318,0.0299,0.0297,0.0296,0.0255,0.0255,0.0255,0,0,0,0,0,0,0.0307,0.0311,0.0344,0.0327,0.0331,0.0339,0.035,0.0351,0.0353,0.0339,0.0336,0.0357,0.0324,0.0319,0.0309,0.0315,0.0297,0.0295,0.0255,0.0255,0.0255,0.031,0,0,0,0,0,0,0.0306,0.0311,0.0319,0.0328,0.0332,0.0349,0.035,0.0351,0.0356,0.0356,0.0339,0.0335,0.0323,0.0312,0.0307,0.0312,0.0293,0.0255,0.0255,0.0255,0.0309,0.0312,0.0315,0,0,0,0,0,0.0304,0.0311,0.0319,0.0324,0.0343,0.0349,0.035,0.0354,0.0356,0.0356,0.0352,0.0335,0.0308,0.0311,0.0305,0.031,0.0255,0.0255,0.0255,0.0307,0.0312,0.0315,0,0,0,0,0,0,0.0291,0.0313,0.0321,0.0336,0.0343,0.035,0.0349,0.0355,0.0352,0.035,0.0338,0.0334,0.0327,0.0307,0.0311,0.0296,0.0277,0.0276,0.0318,0.0322,0.0326,0.036,0.0292,0,0,0,0,0,0.0294,0.0309,0.0322,0.0334,0.0335,0.0343,0.0346,0.035,0.035,0.035,0.0343,0.033,0.0322,0.0315,0.03,0.0292,0.0281,0.0289,0.0293,0.0296,0.0319,0.0312,0.0318,0.0255,0.0255,0.0255,0,0,0.0294,0.0308,0.0316,0.0333,0.0336,0.0348,0.0344,0.0347,0.0366,0.0343,0.0356,0.034,0.0322,0.0319,0.0313,0.0305,0.0302,0.0296,0.0299,0.0321,0.0313,0.032,0.0325,0.0255,0.0255,0.0255,0,0,0.0296,0.0309,0.032,0.0328,0.0337,0.0346,0.0348,0.0356,0.0365,0.0372,0.0365,0.0362,0.034,0.0342,0.0337,0.0348,0.0321,0.033,0.0378,0.0371,0.0377,0.0382,0.0357,0.036,0.0332,0.0332,0.0332,0,0.0294,0.032,0.0321,0.0332,0.035,0.0348,0.0368,0.0373,0.0381,0.0411,0.0379,0.0393,0.0358,0.0391,0.0385,0.0359,0.0344,0.0366,0.0378,0.0383,0.0387,0.0361,0.0363,0.0335,0.0335,0.0334,0.0334,0,0.0304,0.0329,0.0331,0.0356,0.037,0.0384,0.0398,0.0417,0.0425,0.0447,0.0478,0.0443,0.0466,0.0435,0.0407,0.0429,0.0403,0.0384,0.0374,0.0397,0.0367,0.0368,0.0339,0.0338,0.0337,0.0336,0,0,0.0291,0.0334,0.0337,0.0371,0.0391,0.0411,0.0443,0.0495,0.0551,0.0537,0.0613,0.0569,0.0572,0.0566,0.0534,0.051,0.0495,0.0457,0.0455,0.0445,0.047,0.0431,0.0427,0.0479,0.048,0.048,0.043,0,0.0304,0.0348,0.0365,0.042,0.0449,0.0476,0.052,0.0566,0.0601,0.0667,0.0656,0.0695,0.0618,0.0631,0.06,0.0543,0.0504,0.051,0.0439,0.0437,0.041,0.043,0.0433,0.0387,0.0431,0.0431,0.0432,0,0.0312,0.0349,0.0405,0.0493,0.0508,0.0538,0.0642,0.0681,0.0766,0.0796,0.0843,0.0847,0.0848,0.0758,0.0684,0.0693,0.0584,0.0512,0.0508,0.0462,0.0402,0.0373,0.0388,0.028,0.0433,0.0433,0.0433,0,0.0324,0.0386,0.0445,0.0466,0.0547,0.0592,0.064,0.0727,0.0792,0.089,0.0952,0.0969,0.0981,0.088,0.0743,0.0715,0.0641,0.0586,0.0446,0.0441,0.0427,0.0419,0.0345,0.0508,0.0508,0.0508,0.0508,0,0.0348,0.0395,0.0457,0.0489,0.0576,0.0621,0.0726,0.0785,0.089,0.0997,0.102,0.1099,0.1006,0.0966,0.0809,0.0654,0.0696,0.0469,0.0436,0.0441,0.0436,0.0328,0.026,0.0506,0.0506,0.0507,0.0507,0,0.0362,0.0398,0.0469,0.0553,0.0584,0.0644,0.0763,0.085,0.0938,0.1079,0.1118,0.1199,0.1161,0.1045,0.0893,0.0741,0.0513,0.0504,0.0511,0.048,0.0242,0.0177,0.0057,-0.0,0.0356,0.0355,0.0354,0,0.0376,0.0413,0.0502,0.0549,0.0588,0.068,0.0757,0.0859,0.0959,0.1142,0.1219,0.1255,0.1307,0.11,0.0856,0.0618,0.0475,0.0425,0.0361,0.0244,0.0148,0.0093,0.005,0.035,0.0349,0.0348,0.0348,0,0.0398,0.0425,0.0481,0.0581,0.0656,0.0757,0.0871,0.0955,0.1104,0.1238,0.1404,0.1468,0.1313,0.1125,0.081,0.0627,0.0355,0.0399,0.029,0.0154,0.0081,0.0006,0.0352,0.0341,0.0342,0.0343,0.0343,0.0343,0.0399,0.0445,0.0519,0.062,0.0712,0.0837,0.0932,0.1073,0.1245,0.1466,0.1512,0.1625,0.1356,0.0954,0.0712,0.0281,0.0267,0.0132,0.0066,0.0023,-0.0036,0.0286,0.0231,0.0231,0.0231,0.0231,0.0231,0,0.0403,0.047,0.0563,0.0684,0.0796,0.0846,0.1021,0.1139,0.1348,0.1531,0.168,0.1606,0.1252,0.0876,0.0299,0.0007,-0.0093,-0.0139,-0.0203,-0.023,0.0072,0.0069,-0.0035,-0.0035,-0.0035,-0.0035,-0.0035,-0.0035,0.0405,0.049,0.0556,0.0733,0.0831,0.0991,0.1095,0.1276,0.1432,0.1643,0.1716,0.1759,0.1487,0.0525,-0.0105,-0.0245,-0.0434,-0.0488,-0.0576,-0.0358,-0.0337,-0.0317,-0.0334,-0.0522,-0.0523,-0.0837,-0.0841,-0.0843]}],[{"header":{"parameterUnit":"m.s-1","parameterCategory":2,"la1":30.2991,"la2":30.254,"lo1":-89.0895,"lo2":-89.0444,"dy":0.0017,"dx":0.0017,"nx":28,"ny":28,"refTime":"2025-04-22T09:00:00:Z","depth":"2","parameterNumber":2,"parameterNumberName":"U-component_of_CURRENTS"},"data":[0,0,0,0,0,0,0,0,0,0,0,0,0,0,0,0,0,0,0,0,0,0,0,0,0,0,0,0,0,0,0,0,0,0,0,0,0,0,0,0,0,0,0,0,0,0,0,0,0,0,0,0,0,0,0,0,0,0,0.2209,0.2209,0,0.2168,0.2168,0.2167,0.2135,0.2134,0.2134,0.2133,0.2156,0.2157,0.2158,0,0,0,0,0,0,0,0,0,0,0,0,0,0.2213,0.2214,0.2209,0.2209,0.2208,0.2168,0.2168,0.2167,0.2135,0.2134,0.2134,0.2133,0.2156,0.2157,0.2158,0,0,0,0,0,0,0,0,0,0,0,0,0,0.2198,0.2214,0.2209,0.2185,0.2183,0.2168,0.2168,0.2167,0.2135,0.2134,0.2134,0.2133,0.2155,0.2157,0.2159,0.2183,0,0,0.2163,0.2164,0,0,0,0,0,0,0,0,0.2199,0.2198,0.219,0.2187,0.2184,0.2154,0.2177,0.2175,0.2135,0.2155,0.2133,0.2132,0.2161,0.2162,0.2158,0.2184,0.2185,0.2164,0.2165,0.2165,0.2166,0,0,0,0,0,0,0,0.22,0.2199,0.2195,0.2189,0.2185,0.2161,0.2158,0.2176,0.2165,0.2153,0.2151,0.2143,0.216,0.2156,0.2158,0.2186,0.2164,0.2165,0.2166,0.2167,0.2249,0.225,0,0,0,0,0,0,0.2205,0.2201,0.2196,0.2193,0.2187,0.2161,0.2159,0.2166,0.2164,0.2161,0.2144,0.2142,0.2154,0.2156,0.2159,0.2214,0.2165,0.2167,0.2168,0.2247,0.2249,0.225,0,0,0,0,0,0,0.2205,0.2205,0.2198,0.2193,0.219,0.2162,0.2171,0.2166,0.2178,0.2155,0.2154,0.2162,0.2153,0.2157,0.2196,0.2214,0.2167,0.2169,0.2246,0.2248,0.225,0.2309,0,0,0,0,0,0,0.2206,0.2206,0.2221,0.2194,0.2191,0.2213,0.2171,0.2165,0.2172,0.217,0.2171,0.2171,0.2153,0.2194,0.2197,0.2216,0.217,0.2244,0.2247,0.2249,0.2306,0.2313,0.2319,0,0,0,0,0,0.2206,0.2218,0.2223,0.2222,0.2211,0.2214,0.2212,0.2188,0.2174,0.2195,0.2192,0.2172,0.221,0.2197,0.2201,0.222,0.2243,0.2246,0.2249,0.2303,0.2312,0.2319,0,0,0,0,0,0,0.2258,0.2215,0.2219,0.2229,0.2237,0.2208,0.2215,0.2207,0.222,0.222,0.22,0.2201,0.2236,0.2228,0.2214,0.2249,0.2219,0.2222,0.2258,0.2267,0.2273,0.2295,0.2171,0,0,0,0,0,0.2273,0.2254,0.2245,0.2262,0.2264,0.2251,0.2251,0.2243,0.2242,0.2246,0.2239,0.2239,0.2248,0.2259,0.2263,0.2298,0.2307,0.2309,0.2316,0.2321,0.2342,0.2377,0.2389,0.2259,0.2259,0.2259,0,0,0.2319,0.2274,0.2283,0.2268,0.2268,0.2283,0.225,0.2263,0.2281,0.225,0.2276,0.2268,0.2263,0.2289,0.2304,0.2288,0.2363,0.2325,0.233,0.2347,0.2381,0.2394,0.2405,0.2261,0.2261,0.226,0,0,0.2364,0.2349,0.235,0.2348,0.2334,0.2319,0.2332,0.2323,0.2328,0.2359,0.2331,0.234,0.2358,0.2348,0.2349,0.2402,0.2396,0.24,0.2455,0.2489,0.25,0.251,0.2537,0.2549,0.2404,0.2404,0.2404,0,0.2427,0.2402,0.2364,0.236,0.2357,0.2342,0.2369,0.2378,0.2383,0.2398,0.238,0.2399,0.2383,0.2418,0.2425,0.2417,0.2441,0.2423,0.2499,0.2509,0.2518,0.2544,0.2556,0.2407,0.2407,0.2407,0.2406,0,0.244,0.2455,0.2457,0.2432,0.2442,0.2453,0.2457,0.2471,0.2465,0.2473,0.2511,0.2494,0.2509,0.2493,0.2477,0.2531,0.2529,0.2502,0.248,0.2535,0.2558,0.257,0.2412,0.2411,0.241,0.2409,0,0,0.2497,0.2473,0.2479,0.2485,0.2468,0.2476,0.2512,0.2535,0.2566,0.2577,0.2623,0.2619,0.2619,0.262,0.2597,0.2614,0.2681,0.2596,0.2596,0.2626,0.277,0.2694,0.2699,0.2679,0.2681,0.2683,0.276,0,0.2525,0.2531,0.2504,0.2546,0.2559,0.2548,0.2585,0.2612,0.2628,0.2672,0.2674,0.2711,0.2669,0.2681,0.27,0.2686,0.2717,0.2663,0.2711,0.2712,0.264,0.2712,0.2498,0.2542,0.2771,0.2773,0.2775,0,0.253,0.252,0.2565,0.2585,0.2594,0.2627,0.2655,0.2686,0.2747,0.2769,0.2815,0.2824,0.2864,0.2813,0.2854,0.2831,0.2822,0.2801,0.2803,0.2723,0.2658,0.2524,0.2555,0.2794,0.2793,0.2791,0.279,0,0.2527,0.2562,0.2585,0.259,0.2619,0.2652,0.2674,0.273,0.2759,0.2847,0.2882,0.2941,0.2973,0.2981,0.2946,0.2921,0.2982,0.2935,0.2862,0.2856,0.2677,0.2651,0.2982,0.2982,0.2981,0.2981,0.2981,0,0.2513,0.2544,0.2601,0.2601,0.2661,0.2683,0.2742,0.2783,0.2847,0.2886,0.2948,0.2984,0.3021,0.3046,0.3009,0.298,0.3042,0.2898,0.2881,0.269,0.2666,0.2881,0.2868,0.2984,0.2983,0.2983,0.2982,0,0.252,0.2537,0.2582,0.2637,0.2661,0.2717,0.2773,0.2804,0.2878,0.2932,0.2965,0.3051,0.3084,0.3094,0.3107,0.3052,0.3023,0.2994,0.2768,0.2722,0.2862,0.2852,0.2939,0.2937,0.2935,0.2934,0.2933,0,0.2519,0.2538,0.262,0.2642,0.2674,0.2739,0.2767,0.2828,0.2843,0.2941,0.2957,0.3046,0.3042,0.306,0.3007,0.2966,0.3005,0.2738,0.2639,0.2889,0.2863,0.2855,0.2847,0.2428,0.2423,0.2419,0.2416,0,0.2509,0.2554,0.2577,0.2646,0.2688,0.2717,0.2758,0.2761,0.2808,0.2848,0.2871,0.2884,0.2931,0.2797,0.2785,0.272,0.2728,0.2651,0.299,0.2467,0.2412,0.2385,0.2393,0.2378,0.2382,0.2385,0.2387,0.2388,0.2511,0.2541,0.257,0.2615,0.2663,0.2654,0.2606,0.2626,0.2616,0.2577,0.2683,0.2616,0.264,0.2497,0.2403,0.2355,0.2535,0.2403,0.2414,0.243,0.2352,0.2297,0.2227,0.223,0.2232,0.2235,0.2236,0,0.2454,0.2468,0.2518,0.2525,0.2506,0.2594,0.2545,0.2438,0.2349,0.238,0.2343,0.2128,0.2049,0.2079,0.1956,0.1944,0.1905,0.1853,0.1787,0.1828,0.1863,0.1753,0.1471,0.1468,0.1466,0.1463,0,0,0.2435,0.2389,0.2397,0.2327,0.2357,0.2291,0.2232,0.2097,0.2045,0.1911,0.1854,0.1942,0.2031,0.1726,0.1689,0.1563,0.1675,0.1495,0.2119,0.2085,0.2117,0.2202,0.2082,0,0,0,0,0]},{"header":{"parameterUnit":"m.s-1","parameterCategory":2,"la1":30.2991,"la2":30.254,"lo1":-89.0895,"lo2":-89.0444,"dy":0.0017,"dx":0.0017,"nx":28,"ny":28,"refTime":"2025-04-22T09:00:00:Z","depth":"2","parameterNumber":3,"parameterNumberName":"V-component_of_CURRENTS"},"data":[0,0,0,0,0,0,0,0,0,0,0,0,0,0,0,0,0,0,0,0,0,0,0,0,0,0,0,0,0,0,0,0,0,0,0,0,0,0,0,0,0,0,0,0,0,0,0,0,0,0,0,0,0,0,0,0,0,0,0.0069,0.007,0,0.0121,0.0121,0.0122,0.0129,0.0129,0.0128,0.0128,0.0097,0.0096,0.0096,0,0,0,0,0,0,0,0,0,0,0,0,0,0.0006,0.0007,0.0069,0.007,0.0071,0.0121,0.0121,0.0122,0.0129,0.0129,0.0128,0.0128,0.0097,0.0096,0.0096,0,0,0,0,0,0,0,0,0,0,0,0,0,0.0042,0.0007,0.0069,0.0081,0.0083,0.0121,0.0121,0.0122,0.0129,0.0129,0.0128,0.0128,0.0097,0.0096,0.0096,0.0102,0,0,0.0093,0.0093,0,0,0,0,0,0,0,0,0.004,0.0044,0.0079,0.008,0.0082,0.0119,0.0088,0.0112,0.0129,0.011,0.0128,0.0127,0.0098,0.0097,0.0107,0.01,0.0099,0.0093,0.0093,0.0093,0.0092,0,0,0,0,0,0,0,0.0037,0.0042,0.0088,0.008,0.0082,0.0095,0.0099,0.0093,0.0103,0.0112,0.0113,0.0121,0.0098,0.0108,0.0106,0.0098,0.0093,0.0093,0.0092,0.0092,0.0097,0.0098,0,0,0,0,0,0,0.0033,0.004,0.0086,0.009,0.0061,0.0096,0.0101,0.0107,0.0105,0.0106,0.0121,0.0121,0.0109,0.0107,0.0105,0.0122,0.0093,0.0092,0.0091,0.0097,0.0098,0.0098,0,0,0,0,0,0,0.0032,0.0037,0.0084,0.0067,0.0074,0.0098,0.0105,0.0108,0.0118,0.0114,0.0112,0.0128,0.0109,0.0106,0.0109,0.012,0.0092,0.0091,0.0096,0.0097,0.0098,0.015,0,0,0,0,0,0,0.003,0.0036,0.0041,0.0067,0.0075,0.0109,0.0105,0.011,0.0125,0.0125,0.0119,0.0116,0.0108,0.0111,0.0109,0.0119,0.009,0.0095,0.0097,0.0098,0.0147,0.0152,0.0157,0,0,0,0,0,0.0027,0.0034,0.0041,0.0047,0.008,0.011,0.0116,0.013,0.0125,0.0135,0.0134,0.0116,0.0116,0.0111,0.0108,0.0119,0.0095,0.0096,0.0097,0.0145,0.0151,0.0156,0,0,0,0,0,0,0.0013,0.0036,0.0044,0.0059,0.0085,0.0112,0.0121,0.0131,0.014,0.0134,0.0127,0.0125,0.0132,0.0117,0.0112,0.0123,0.0101,0.0102,0.0138,0.0143,0.0148,0.0147,0.009,0,0,0,0,0,0.0012,0.002,0.005,0.0063,0.0073,0.0097,0.0111,0.0122,0.0134,0.0138,0.0139,0.0134,0.0137,0.0133,0.0132,0.0138,0.011,0.0141,0.0145,0.0149,0.0147,0.0127,0.013,0.0103,0.0103,0.0103,0,0,0.0013,0.0025,0.0032,0.0061,0.0077,0.0104,0.0103,0.0124,0.0149,0.0131,0.0156,0.0151,0.0143,0.0155,0.0156,0.0143,0.0142,0.0151,0.0155,0.0149,0.0129,0.0132,0.0134,0.0103,0.0103,0.0103,0,0,0.0015,0.0025,0.0033,0.0057,0.0084,0.0105,0.0111,0.0141,0.0154,0.0178,0.0174,0.0177,0.0181,0.0183,0.0182,0.0208,0.017,0.0205,0.0225,0.0208,0.0209,0.0211,0.0174,0.0172,0.0205,0.0205,0.0205,0,0.0018,0.0035,0.0043,0.0062,0.009,0.0106,0.0137,0.0154,0.0184,0.0203,0.0188,0.0208,0.0194,0.0217,0.0224,0.0218,0.0194,0.0207,0.0214,0.0214,0.0215,0.0177,0.0173,0.0207,0.0207,0.0207,0.0206,0,0.0034,0.0051,0.0058,0.0091,0.0119,0.0147,0.0179,0.0204,0.0218,0.024,0.0265,0.0251,0.0266,0.0259,0.0246,0.0253,0.023,0.0225,0.02,0.0221,0.0179,0.0175,0.0211,0.021,0.0209,0.0209,0,0,0.0039,0.0066,0.007,0.0099,0.0141,0.0173,0.021,0.0263,0.0303,0.0305,0.035,0.0337,0.0331,0.0328,0.0313,0.0286,0.0262,0.0255,0.0253,0.0218,0.0207,0.0193,0.0186,0.026,0.026,0.0259,0.0174,0,0.0057,0.0093,0.0109,0.0166,0.0195,0.0232,0.0277,0.0321,0.0353,0.0397,0.0378,0.0409,0.0358,0.037,0.0335,0.0296,0.0254,0.0285,0.0191,0.0188,0.0173,0.0183,0.0204,0.013,0.0169,0.0169,0.0168,0,0.0075,0.0099,0.0144,0.0218,0.0237,0.0278,0.0368,0.0411,0.0465,0.0487,0.0499,0.0496,0.0475,0.0425,0.0336,0.0359,0.028,0.0227,0.0223,0.0188,0.0166,0.0116,0.012,0.016,0.0161,0.0162,0.0162,0,0.0081,0.0136,0.0174,0.0198,0.0271,0.0312,0.0367,0.0437,0.0498,0.0547,0.0592,0.0562,0.0568,0.0464,0.0359,0.0348,0.025,0.0226,0.0129,0.0126,0.0114,0.0111,0.0142,0.0143,0.0143,0.0143,0.0143,0,0.0105,0.014,0.018,0.0205,0.0279,0.033,0.0428,0.0475,0.0561,0.0651,0.0637,0.0688,0.0578,0.0522,0.0388,0.0253,0.0271,0.0128,0.0108,0.0132,0.0132,0.0137,0.0137,0.014,0.014,0.0141,0.0142,0,0.0109,0.0126,0.017,0.0242,0.0277,0.0328,0.0471,0.0553,0.062,0.0735,0.0758,0.0785,0.0718,0.0588,0.0438,0.0312,0.0171,0.0112,0.014,0.0124,0.0042,0.0047,-0.0012,-0.0013,-0.0014,-0.0015,-0.0016,0,0.0119,0.0137,0.019,0.0224,0.026,0.0357,0.0448,0.056,0.0666,0.08,0.0865,0.0851,0.0856,0.063,0.0421,0.0193,0.0163,0.0052,0.0029,0.0043,0.0028,0.0034,0.0039,0.0024,0.0023,0.0023,0.0023,0,0.0144,0.0143,0.0177,0.0249,0.0328,0.0435,0.0578,0.0675,0.083,0.0931,0.105,0.1058,0.0876,0.0683,0.0389,0.0228,0.0091,0.0038,0.0058,0.0068,0.0072,0.006,0.0064,0.0021,0.0021,0.0021,0.0021,0.0021,0.0157,0.018,0.0226,0.0307,0.0394,0.0537,0.0652,0.0812,0.0986,0.1154,0.115,0.1159,0.0946,0.0577,0.0327,0.0068,0.0077,-0.0032,-0.0029,-0.0027,0.0001,0.0004,-0.0056,-0.0056,-0.0057,-0.0057,-0.0057,0,0.0197,0.0244,0.0309,0.0409,0.0524,0.0559,0.077,0.0895,0.1108,0.1199,0.1274,0.1064,0.0853,0.0596,0.0224,-0.0007,-0.0027,-0.0094,-0.0059,-0.0055,-0.0052,-0.0024,-0.0089,-0.009,-0.009,-0.0091,0,0,0.0216,0.0295,0.0346,0.0534,0.0607,0.0779,0.0898,0.1049,0.1161,0.1255,0.1253,0.121,0.0925,0.0643,0.0344,0.0133,0.0081,0.0077,0.0128,0.0209,0.0214,0.0011,0.0061,0,0,0,0,0]}],[{"header":{"parameterUnit":"m.s-1","parameterCategory":2,"la1":30.2991,"la2":30.254,"lo1":-89.0895,"lo2":-89.0444,"dy":0.0017,"dx":0.0017,"nx":28,"ny":28,"refTime":"2025-04-22T09:00:00:Z","depth":"4","parameterNumber":2,"parameterNumberName":"U-component_of_CURRENTS"},"data":[0,0,0,0,0,0,0,0,0,0,0,0,0,0,0,0,0,0,0,0,0,0,0,0,0,0,0,0,0,0,0,0,0,0,0,0,0,0,0,0,0,0,0,0,0,0,0,0,0,0,0,0,0,0,0,0,0,0,0.1019,0.1021,0,0.1112,0.1113,0.1114,0.1188,0.1189,0.119,0.119,0.1338,0.1341,0.1344,0,0,0,0,0,0,0,0,0,0,0,0,0,0.0936,0.0936,0.1019,0.1021,0.1022,0.1112,0.1113,0.1114,0.1188,0.1189,0.119,0.1191,0.1337,0.134,0.1344,0,0,0,0,0,0,0,0,0,0,0,0,0,0.0992,0.0937,0.1019,0.1071,0.1077,0.1112,0.1113,0.1114,0.1187,0.1189,0.119,0.1191,0.1335,0.134,0.1344,0.1345,0,0,0.1358,0.136,0,0,0,0,0,0,0,0,0.0989,0.0995,0.1062,0.1068,0.1074,0.1142,0.1138,0.1195,0.1187,0.1143,0.119,0.1192,0.1277,0.1287,0.1298,0.1352,0.1358,0.1359,0.1362,0.1364,0.1365,0,0,0,0,0,0,0,0.0985,0.0992,0.1054,0.1063,0.1071,0.11,0.1109,0.1149,0.1201,0.1147,0.1153,0.1166,0.1281,0.1293,0.1302,0.136,0.1359,0.1363,0.1366,0.1367,0.1543,0.1545,0,0,0,0,0,0,0.0975,0.0988,0.1051,0.1057,0.1036,0.11,0.1111,0.1117,0.1199,0.1214,0.1165,0.1169,0.1284,0.1296,0.1307,0.141,0.1364,0.1368,0.1371,0.1541,0.1544,0.1546,0,0,0,0,0,0,0.0972,0.0979,0.1047,0.1027,0.1038,0.11,0.1107,0.1118,0.1153,0.1213,0.1228,0.1192,0.1286,0.1301,0.1372,0.1413,0.137,0.1374,0.1539,0.1542,0.1545,0.1554,0,0,0,0,0,0,0.0969,0.0977,0.099,0.1026,0.1039,0.1083,0.1106,0.1119,0.1159,0.1166,0.1241,0.1254,0.1288,0.1365,0.1376,0.1419,0.1378,0.1537,0.154,0.1544,0.1551,0.1557,0.1562,0,0,0,0,0,0.0966,0.0968,0.099,0.0999,0.105,0.1083,0.1093,0.114,0.1159,0.1177,0.1235,0.1253,0.1396,0.1369,0.1383,0.1427,0.1535,0.1539,0.1543,0.1549,0.1556,0.1562,0,0,0,0,0,0,0.0936,0.0977,0.1002,0.1017,0.1057,0.1097,0.1116,0.1146,0.1202,0.1221,0.1269,0.1288,0.137,0.1394,0.1363,0.1491,0.1472,0.1479,0.1472,0.1479,0.1484,0.1471,0.1382,0,0,0,0,0,0.0935,0.0957,0.0995,0.1016,0.1027,0.1074,0.1098,0.1136,0.1184,0.121,0.1266,0.1331,0.1393,0.143,0.1487,0.1545,0.156,0.1586,0.1592,0.1596,0.1596,0.1663,0.1673,0.156,0.156,0.156,0,0,0.0935,0.0959,0.0975,0.1014,0.1042,0.1071,0.1091,0.1134,0.1178,0.1217,0.1297,0.1352,0.1413,0.1491,0.1529,0.1518,0.1633,0.1601,0.1604,0.1602,0.1668,0.1679,0.1689,0.1563,0.1562,0.1562,0,0,0.0933,0.0957,0.0971,0.0998,0.1049,0.1083,0.1097,0.1154,0.1197,0.127,0.1321,0.1397,0.1482,0.1542,0.1578,0.1643,0.1659,0.1669,0.1684,0.1749,0.1759,0.1767,0.1778,0.1787,0.167,0.167,0.167,0,0.0946,0.0955,0.0983,0.0998,0.1032,0.1086,0.1115,0.1159,0.1245,0.1288,0.1302,0.1457,0.1507,0.1605,0.1633,0.1655,0.1675,0.1651,0.1754,0.1763,0.1772,0.1781,0.1791,0.1671,0.1671,0.1671,0.1671,0,0.0943,0.0962,0.0967,0.1014,0.1053,0.1087,0.1149,0.1206,0.1267,0.1319,0.1433,0.1505,0.1599,0.163,0.1651,0.1748,0.1735,0.1751,0.1731,0.1783,0.1789,0.18,0.1672,0.1672,0.1672,0.1671,0,0,0.0956,0.097,0.0979,0.0996,0.107,0.1099,0.1175,0.1258,0.1315,0.1403,0.1485,0.1593,0.1639,0.1683,0.1732,0.1783,0.1852,0.1791,0.1794,0.1786,0.1962,0.1836,0.1834,0.1891,0.1893,0.1895,0.1933,0,0.0962,0.0975,0.1002,0.1047,0.1055,0.1134,0.1199,0.1287,0.1369,0.1458,0.1545,0.1644,0.1657,0.1719,0.1772,0.1848,0.1885,0.1838,0.1925,0.1927,0.1797,0.1845,0.1903,0.194,0.1943,0.1944,0.1946,0,0.0945,0.0964,0.0992,0.105,0.1067,0.1122,0.1245,0.1318,0.1444,0.1508,0.1612,0.168,0.179,0.1789,0.1917,0.1889,0.1924,0.1958,0.1961,0.1847,0.1821,0.1886,0.1965,0.1963,0.1962,0.196,0.1959,0,0.0903,0.0954,0.098,0.0999,0.108,0.1138,0.1216,0.1341,0.1415,0.156,0.1625,0.1746,0.1835,0.1903,0.1977,0.1963,0.2089,0.2082,0.1989,0.1979,0.2075,0.2065,0.2158,0.2158,0.2158,0.2158,0.2158,0,0.0863,0.0889,0.0965,0.0971,0.1039,0.1125,0.1224,0.131,0.1454,0.1538,0.1659,0.1735,0.1875,0.1959,0.1997,0.2018,0.2112,0.199,0.199,0.2074,0.2065,0.208,0.207,0.2159,0.2159,0.2159,0.2159,0,0.078,0.083,0.0854,0.0954,0.1001,0.1055,0.1215,0.1278,0.1432,0.155,0.1605,0.1762,0.1869,0.1965,0.2084,0.204,0.2078,0.206,0.212,0.2123,0.1908,0.1899,0.1944,0.194,0.1937,0.1934,0.1932,0,0.0741,0.0738,0.0819,0.0851,0.09,0.1007,0.1076,0.1247,0.1331,0.1544,0.159,0.1746,0.1832,0.1887,0.199,0.204,0.2029,0.2011,0.1968,0.1895,0.1892,0.1888,0.1883,0.1926,0.1926,0.1925,0.1924,0,0.0676,0.0697,0.0706,0.0758,0.083,0.0896,0.1027,0.1083,0.1287,0.1426,0.1548,0.1622,0.1731,0.1814,0.1873,0.1905,0.2003,0.1976,0.1982,0.1942,0.1875,0.1873,0.1873,0.1912,0.1914,0.1915,0.1916,0,0.0642,0.0614,0.0631,0.0677,0.0741,0.0789,0.0861,0.099,0.1104,0.1366,0.1393,0.1562,0.1708,0.1744,0.1797,0.1823,0.1797,0.1732,0.1751,0.1764,0.1692,0.1579,0.1528,0,0,0,0,0,0.0614,0.0577,0.0575,0.0606,0.0648,0.0705,0.0836,0.0924,0.113,0.1178,0.1299,0.1399,0.1498,0.1582,0.1576,0.1701,0.1786,0.1684,0.1715,0.1848,0.1862,0.1795,0,0,0,0,0,0,0.0589,0.0579,0.0543,0.055,0.0563,0.0619,0.0697,0.0818,0.0882,0.1087,0.1156,0.1302,0.1424,0.1494,0.1547,0.1573,0.1559,0.1796,0.1792,0.1841,0.1853,0.1864,0.18,0,0,0,0,0]},{"header":{"parameterUnit":"m.s-1","parameterCategory":2,"la1":30.2991,"la2":30.254,"lo1":-89.0895,"lo2":-89.0444,"dy":0.0017,"dx":0.0017,"nx":28,"ny":28,"refTime":"2025-04-22T09:00:00:Z","depth":"4","parameterNumber":3,"parameterNumberName":"V-component_of_CURRENTS"},"data":[0,0,0,0,0,0,0,0,0,0,0,0,0,0,0,0,0,0,0,0,0,0,0,0,0,0,0,0,0,0,0,0,0,0,0,0,0,0,0,0,0,0,0,0,0,0,0,0,0,0,0,0,0,0,0,0,0,0,0.0128,0.0129,0,0.0153,0.0153,0.0153,0.014,0.0139,0.0139,0.0138,0.0105,0.0104,0.0104,0,0,0,0,0,0,0,0,0,0,0,0,0,0.0087,0.0088,0.0128,0.0129,0.0129,0.0153,0.0153,0.0153,0.014,0.0139,0.0138,0.0138,0.0105,0.0104,0.0104,0,0,0,0,0,0,0,0,0,0,0,0,0,0.0107,0.0088,0.0128,0.0125,0.0125,0.0153,0.0153,0.0153,0.014,0.0139,0.0138,0.0137,0.0105,0.0104,0.0104,0.0121,0,0,0.0103,0.0102,0,0,0,0,0,0,0,0,0.0106,0.0109,0.0125,0.0126,0.0126,0.0142,0.0126,0.014,0.014,0.0134,0.0138,0.0137,0.0113,0.0112,0.0119,0.0119,0.0118,0.0103,0.0102,0.0102,0.0102,0,0,0,0,0,0,0,0.0105,0.0108,0.0138,0.0126,0.0126,0.0128,0.013,0.0129,0.0128,0.0135,0.0134,0.0137,0.0112,0.0119,0.0118,0.0117,0.0103,0.0102,0.0102,0.0102,0.0119,0.012,0,0,0,0,0,0,0.0102,0.0107,0.0137,0.0139,0.0113,0.013,0.0132,0.0138,0.0129,0.0127,0.0138,0.0137,0.0121,0.0118,0.0117,0.0134,0.0102,0.0102,0.0101,0.0119,0.012,0.012,0,0,0,0,0,0,0.0102,0.0105,0.0136,0.0123,0.0127,0.0132,0.0139,0.0139,0.0142,0.0132,0.0129,0.014,0.012,0.0117,0.0124,0.0132,0.0102,0.0101,0.0118,0.0119,0.012,0.017,0,0,0,0,0,0,0.01,0.0105,0.0112,0.0123,0.0128,0.0155,0.014,0.014,0.0146,0.0144,0.0133,0.0129,0.0119,0.0125,0.0123,0.0131,0.0101,0.0117,0.0118,0.012,0.0167,0.0172,0.0177,0,0,0,0,0,0.0099,0.0113,0.0112,0.0116,0.0136,0.0156,0.0159,0.0158,0.0147,0.0156,0.0151,0.0129,0.0132,0.0126,0.0124,0.0131,0.0116,0.0118,0.0119,0.0165,0.0171,0.0177,0,0,0,0,0,0,0.0101,0.0114,0.0112,0.013,0.0143,0.0154,0.0164,0.0161,0.0166,0.016,0.0145,0.0142,0.015,0.0136,0.013,0.014,0.0118,0.0119,0.0153,0.0159,0.0163,0.0146,0.01,0,0,0,0,0,0.0105,0.0116,0.0129,0.0143,0.0151,0.0157,0.0165,0.0164,0.0169,0.017,0.0165,0.0157,0.0158,0.0154,0.0153,0.0162,0.0126,0.0164,0.0169,0.0173,0.0158,0.0123,0.0122,0.0126,0.0126,0.0126,0,0,0.0109,0.0118,0.0124,0.0144,0.0153,0.0172,0.016,0.0174,0.0186,0.0166,0.0181,0.0176,0.0165,0.0178,0.0178,0.0165,0.0155,0.0175,0.0179,0.016,0.0124,0.0124,0.0123,0.0127,0.0127,0.0126,0,0,0.0124,0.0132,0.0147,0.0161,0.0177,0.0183,0.0187,0.0201,0.0203,0.0221,0.0208,0.0207,0.0213,0.0204,0.02,0.0229,0.0185,0.0232,0.0239,0.0206,0.0205,0.0204,0.0165,0.0159,0.0231,0.0231,0.0231,0,0.0129,0.015,0.0155,0.0177,0.0189,0.0189,0.0209,0.0218,0.0231,0.0231,0.0229,0.0228,0.0222,0.0221,0.0235,0.0238,0.0209,0.022,0.0211,0.0209,0.0207,0.0167,0.016,0.0234,0.0233,0.0233,0.0233,0,0.0155,0.0175,0.0188,0.0212,0.0226,0.0245,0.0256,0.0266,0.0267,0.0268,0.027,0.0266,0.0256,0.0262,0.026,0.0245,0.0228,0.0224,0.0194,0.0209,0.0167,0.0159,0.0237,0.0237,0.0236,0.0235,0,0,0.0163,0.0199,0.0204,0.0224,0.0246,0.0264,0.028,0.0294,0.0299,0.0302,0.0301,0.0304,0.0287,0.028,0.0272,0.0247,0.0218,0.0231,0.0228,0.0188,0.0138,0.0144,0.0135,0.0214,0.0213,0.0212,0.0117,0,0.0185,0.0229,0.0237,0.0279,0.0306,0.0307,0.0324,0.0332,0.0333,0.0335,0.0311,0.0314,0.0299,0.0299,0.0269,0.0235,0.0198,0.0243,0.0132,0.0128,0.0128,0.0127,0.0208,0.0111,0.0109,0.0108,0.0107,0,0.0215,0.024,0.0285,0.0319,0.0329,0.035,0.0368,0.0383,0.0374,0.0371,0.0349,0.0332,0.0299,0.0288,0.0202,0.0232,0.0182,0.0148,0.0143,0.012,0.0119,0.0091,0.0092,0.0093,0.0094,0.0095,0.0096,0,0.0236,0.0277,0.0314,0.0329,0.0363,0.0378,0.039,0.0394,0.0413,0.0391,0.0396,0.034,0.033,0.0249,0.0184,0.0189,0.0084,0.0082,0.003,0.003,0.003,0.0032,0.0004,0.0005,0.0005,0.0005,0.0005,0,0.0266,0.0296,0.0329,0.0356,0.04,0.0404,0.044,0.0443,0.0446,0.0469,0.0417,0.0419,0.0322,0.0259,0.0177,0.0081,0.0072,0.0018,0.0004,0.0055,0.0061,0.0024,0.0028,0.0001,0.0002,0.0003,0.0004,0,0.0294,0.0312,0.0364,0.0403,0.0422,0.0453,0.0495,0.0516,0.0507,0.0532,0.053,0.048,0.0395,0.0288,0.0164,0.0091,-0.0012,-0.0046,0.0011,0.0003,-0.0049,-0.0041,-0.0128,-0.0128,-0.0129,-0.0129,-0.013,0,0.0307,0.034,0.0412,0.0447,0.0471,0.0514,0.0548,0.0557,0.0582,0.0575,0.0593,0.0523,0.0474,0.0295,0.0174,-0.0007,-0.0023,-0.0092,-0.0074,-0.0058,-0.0064,-0.0055,-0.0048,-0.013,-0.0131,-0.0131,-0.0131,0,0.0336,0.037,0.0418,0.0496,0.0545,0.0598,0.0643,0.0668,0.0672,0.0669,0.0648,0.0553,0.0456,0.031,0.0172,0.0046,-0.0059,-0.0099,-0.0098,-0.0081,-0.0062,-0.0066,-0.0057,-0.0133,-0.0132,-0.0132,-0.0132,0,0.0358,0.0399,0.0469,0.0535,0.0598,0.0653,0.0679,0.0702,0.0723,0.0711,0.0705,0.0588,0.0525,0.0338,0.0212,0.0085,0.0051,0.0003,-0.0003,-0.0002,0.0067,0.0111,0.0072,0,0,0,0,0,0.0371,0.0421,0.0493,0.0565,0.0629,0.0665,0.0728,0.0742,0.0751,0.0748,0.0726,0.0635,0.0447,0.0368,0.0243,0.0192,0.0022,0.0039,-0.0038,-0.0143,-0.0141,-0.008,0,0,0,0,0,0,0.0386,0.0451,0.0495,0.0574,0.062,0.069,0.0729,0.0745,0.0741,0.0733,0.0643,0.0592,0.0417,0.0518,0.0236,0.0197,0.0128,-0.0047,-0.005,-0.0144,-0.0142,-0.014,-0.0077,0,0,0,0,0]}]]